Location: Bukit Lungun
(2.6833°N, 113.9667°E)
Time: 12:13:24
(UTC+00:00)

Cosmos 1110 Rocket - Pass Details

Date: 02 March 2021
Orbit: 753 x 781 km, 74.0° (Epoch: 20 April)

Event Time Altitude Azimuth Distance (km) Brightness Sun altitude
Exits shadow 21:22:40 22° 323° (NW) 1,627 5.3 -18.6°
Maximum altitude 21:25:47 48° 258° (WSW) 983 4.1 -17.8°
Drops below altitude 10° 21:30:45 10° 184° (S) 2,278 6.5 -16.5°
Sets 21:33:11 0° 178° (S) 3,202 7.3 -15.9°
